Time,TemperatureF,DewpointF,PressureIn,WindDirection,WindDirectionDegrees,WindSpeedMPH,WindSpeedGustMPH,Humidity,HourlyPrecipIn,Conditions,Clouds,dailyrainin,SoftwareType,DateUTC
2013-11-25 00:02:00,43.3,30.0,30.31,NNE,32,3.0,10.0,59,0.00,,,0.00,meteohub,2013-11-25 06:02:00,
2013-11-25 00:07:00,43.3,30.0,30.31,North,0,3.0,10.0,59,0.00,,,0.00,meteohub,2013-11-25 06:07:00,
2013-11-25 00:12:00,43.3,30.0,30.30,NE,48,4.0,10.0,59,0.00,,,0.00,meteohub,2013-11-25 06:12:00,
2013-11-25 00:17:00,43.2,29.8,30.31,NE,40,3.0,10.0,59,0.00,,,0.00,meteohub,2013-11-25 06:17:00,
2013-11-25 00:22:00,43.2,29.8,30.30,NE,51,2.0,7.0,59,0.00,,,0.00,meteohub,2013-11-25 06:22:00,
2013-11-25 00:27:00,43.2,29.3,30.31,NNE,30,2.0,10.0,58,0.00,,,0.00,meteohub,2013-11-25 06:27:00,
2013-11-25 00:32:00,43.2,29.8,30.30,NE,56,1.0,10.0,59,0.00,,,0.00,meteohub,2013-11-25 06:32:00,
2013-11-25 00:37:00,43.2,29.3,30.31,NNE,17,4.0,10.0,58,0.00,,,0.00,meteohub,2013-11-25 06:37:00,
2013-11-25 00:42:00,43.2,29.3,30.30,NE,48,1.0,10.0,58,0.00,,,0.00,meteohub,2013-11-25 06:42:00,
2013-11-25 00:47:00,43.2,29.8,30.30,NNW,345,4.0,7.0,59,0.00,,,0.00,meteohub,2013-11-25 06:47:00,
2013-11-25 00:52:00,43.0,29.3,30.30,NNE,26,1.0,7.0,58,0.00,,,0.00,meteohub,2013-11-25 06:52:00,
2013-11-25 00:57:00,43.0,29.3,30.30,NNE,18,0.0,7.0,58,0.00,,,0.00,meteohub,2013-11-25 06:57:00,
2013-11-25 01:02:00,43.0,29.3,30.30,NNW,340,3.0,7.0,58,0.00,,,0.00,meteohub,2013-11-25 07:02:00,
2013-11-25 01:07:00,43.0,29.3,30.30,North,349,1.0,10.0,58,0.00,,,0.00,meteohub,2013-11-25 07:07:00,
2013-11-25 01:12:00,43.0,29.3,30.30,NNE,27,2.0,10.0,58,0.00,,,0.00,meteohub,2013-11-25 07:12:00,
2013-11-25 01:17:00,43.0,29.3,30.29,ENE,58,7.0,10.0,58,0.00,,,0.00,meteohub,2013-11-25 07:17:00,
2013-11-25 01:22:00,43.0,28.8,30.29,ENE,78,1.0,8.0,57,0.00,,,0.00,meteohub,2013-11-25 07:22:00,
2013-11-25 01:27:00,43.0,29.3,30.29,ENE,78,3.0,8.0,58,0.00,,,0.00,meteohub,2013-11-25 07:27:00,
2013-11-25 01:32:00,43.0,28.8,30.28,NNE,30,4.0,8.0,57,0.00,,,0.00,meteohub,2013-11-25 07:32:00,
2013-11-25 01:37:00,43.0,28.4,30.28,NNE,22,3.0,11.0,56,0.00,,,0.00,meteohub,2013-11-25 07:37:00,
2013-11-25 01:42:00,42.8,28.6,30.27,NNE,31,4.0,11.0,57,0.00,,,0.00,meteohub,2013-11-25 07:42:00,
2013-11-25 01:47:00,42.8,28.6,30.27,NE,35,3.0,11.0,57,0.00,,,0.00,meteohub,2013-11-25 07:47:00,
2013-11-25 01:52:00,42.6,28.9,30.27,NNE,28,3.0,9.0,58,0.00,,,0.00,meteohub,2013-11-25 07:52:00,
2013-11-25 01:57:00,42.6,28.9,30.27,ENE,63,5.0,9.0,58,0.00,,,0.00,meteohub,2013-11-25 07:57:00,
2013-11-25 02:02:00,42.4,28.8,30.27,NNE,20,1.0,9.0,58,0.00,,,0.00,meteohub,2013-11-25 08:02:00,
2013-11-25 02:07:00,42.4,28.8,30.27,NE,38,3.0,9.0,58,0.00,,,0.00,meteohub,2013-11-25 08:07:00,
2013-11-25 02:12:00,42.4,28.8,30.27,East,89,2.0,9.0,58,0.00,,,0.00,meteohub,2013-11-25 08:12:00,
2013-11-25 02:17:00,42.4,28.8,30.27,NNE,33,4.0,8.0,58,0.00,,,0.00,meteohub,2013-11-25 08:17:00,
2013-11-25 02:22:00,42.4,28.8,30.27,NE,36,7.0,8.0,58,0.00,,,0.00,meteohub,2013-11-25 08:22:00,
2013-11-25 02:27:00,42.4,28.8,30.27,NE,47,4.0,8.0,58,0.00,,,0.00,meteohub,2013-11-25 08:27:00,
2013-11-25 02:32:00,42.4,28.8,30.27,NE,38,5.0,8.0,58,0.00,,,0.00,meteohub,2013-11-25 08:32:00,
2013-11-25 02:37:00,42.4,29.1,30.26,NE,34,2.0,8.0,59,0.00,,,0.00,meteohub,2013-11-25 08:37:00,
2013-11-25 02:42:00,42.4,29.1,30.26,NE,42,5.0,8.0,59,0.00,,,0.00,meteohub,2013-11-25 08:42:00,
2013-11-25 02:47:00,42.3,28.9,30.26,NE,34,3.0,8.0,59,0.00,,,0.00,meteohub,2013-11-25 08:47:00,
2013-11-25 02:52:00,42.3,29.3,30.25,NE,36,1.0,8.0,60,0.00,,,0.00,meteohub,2013-11-25 08:52:00,
2013-11-25 02:57:00,42.3,28.9,30.25,NE,35,2.0,8.0,59,0.00,,,0.00,meteohub,2013-11-25 08:57:00,
2013-11-25 03:02:00,42.3,29.3,30.25,NE,38,3.0,8.0,60,0.00,,,0.00,meteohub,2013-11-25 09:02:00,
2013-11-25 03:07:00,42.3,28.9,30.24,NE,50,6.0,8.0,59,0.00,,,0.00,meteohub,2013-11-25 09:07:00,
2013-11-25 03:12:00,42.3,29.3,30.24,NNW,343,3.0,10.0,60,0.00,,,0.00,meteohub,2013-11-25 09:12:00,
2013-11-25 03:17:00,42.3,28.9,30.24,NNE,32,4.0,10.0,59,0.00,,,0.00,meteohub,2013-11-25 09:17:00,
2013-11-25 03:22:00,42.4,29.1,30.24,ENE,57,4.0,10.0,59,0.00,,,0.00,meteohub,2013-11-25 09:22:00,
2013-11-25 03:27:00,42.4,29.1,30.24,ENE,57,3.0,9.0,59,0.00,,,0.00,meteohub,2013-11-25 09:27:00,
2013-11-25 03:32:00,42.4,29.1,30.24,NNW,343,1.0,9.0,59,0.00,,,0.00,meteohub,2013-11-25 09:32:00,
2013-11-25 03:37:00,42.4,29.1,30.23,NE,45,3.0,9.0,59,0.00,,,0.00,meteohub,2013-11-25 09:37:00,
2013-11-25 03:42:00,42.4,29.1,30.23,NE,46,5.0,11.0,59,0.00,,,0.00,meteohub,2013-11-25 09:42:00,
2013-11-25 03:47:00,42.4,29.1,30.22,NE,55,3.0,11.0,59,0.00,,,0.00,meteohub,2013-11-25 09:47:00,
2013-11-25 03:52:00,42.4,29.1,30.22,ENE,57,1.0,11.0,59,0.00,,,0.00,meteohub,2013-11-25 09:52:00,
2013-11-25 03:57:00,42.6,29.3,30.22,ENE,64,2.0,9.0,59,0.00,,,0.00,meteohub,2013-11-25 09:57:00,
2013-11-25 04:02:00,42.6,29.3,30.22,NE,55,0.0,10.0,59,0.00,,,0.00,meteohub,2013-11-25 10:02:00,
2013-11-25 04:07:00,42.6,29.7,30.22,NE,51,0.0,10.0,60,0.00,,,0.00,meteohub,2013-11-25 10:07:00,
2013-11-25 04:12:00,43.0,30.0,30.22,NNE,33,8.0,9.0,60,0.00,,,0.00,meteohub,2013-11-25 10:12:00,
2013-11-25 04:17:00,43.0,29.7,30.21,NE,36,1.0,8.0,59,0.00,,,0.00,meteohub,2013-11-25 10:17:00,
2013-11-25 04:22:00,43.2,29.8,30.20,NE,53,4.0,9.0,59,0.00,,,0.00,meteohub,2013-11-25 10:22:00,
2013-11-25 04:27:00,43.2,29.8,30.20,ENE,57,7.0,10.0,59,0.00,,,0.00,meteohub,2013-11-25 10:27:00,
2013-11-25 04:32:00,43.3,29.5,30.21,ENE,62,0.0,10.0,58,0.00,,,0.00,meteohub,2013-11-25 10:32:00,
2013-11-25 04:37:00,43.3,29.5,30.21,NE,46,0.0,10.0,58,0.00,,,0.00,meteohub,2013-11-25 10:37:00,
2013-11-25 04:42:00,43.3,29.5,30.21,NE,46,0.0,7.0,58,0.00,,,0.00,meteohub,2013-11-25 10:42:00,
2013-11-25 04:47:00,43.3,29.5,30.21,NE,45,5.0,11.0,58,0.00,,,0.00,meteohub,2013-11-25 10:47:00,
2013-11-25 04:52:00,43.5,29.3,30.21,NNE,13,0.0,11.0,57,0.00,,,0.00,meteohub,2013-11-25 10:52:00,
2013-11-25 04:57:00,43.5,29.7,30.21,NE,34,4.0,11.0,58,0.00,,,0.00,meteohub,2013-11-25 10:57:00,
2013-11-25 05:02:00,43.5,29.7,30.21,NE,46,4.0,9.0,58,0.00,,,0.00,meteohub,2013-11-25 11:02:00,
2013-11-25 05:07:00,43.5,29.7,30.20,NE,56,4.0,11.0,58,0.00,,,0.00,meteohub,2013-11-25 11:07:00,
2013-11-25 05:12:00,43.7,29.8,30.20,ENE,61,2.0,11.0,58,0.00,,,0.00,meteohub,2013-11-25 11:12:00,
2013-11-25 05:17:00,43.9,30.6,30.20,NE,37,2.0,11.0,59,0.00,,,0.00,meteohub,2013-11-25 11:17:00,
2013-11-25 05:22:00,43.9,30.6,30.20,NE,51,1.0,9.0,59,0.00,,,0.00,meteohub,2013-11-25 11:22:00,
2013-11-25 05:27:00,43.9,30.6,30.20,NE,55,0.0,9.0,59,0.00,,,0.00,meteohub,2013-11-25 11:27:00,
2013-11-25 05:32:00,44.1,31.1,30.20,NNE,28,7.0,9.0,60,0.00,,,0.00,meteohub,2013-11-25 11:32:00,
2013-11-25 05:37:00,44.1,31.1,30.20,ENE,58,5.0,9.0,60,0.00,,,0.00,meteohub,2013-11-25 11:37:00,
2013-11-25 05:42:00,44.1,31.1,30.20,ENE,58,3.0,10.0,60,0.00,,,0.00,meteohub,2013-11-25 11:42:00,
2013-11-25 05:46:00,44.1,31.1,30.20,ENE,63,3.0,10.0,60,0.00,,,0.00,meteohub,2013-11-25 11:46:00,
2013-11-25 05:52:00,44.1,31.5,30.20,NE,53,0.0,8.0,61,0.00,,,0.00,meteohub,2013-11-25 11:52:00,
2013-11-25 05:57:00,44.1,31.5,30.19,ENE,62,11.0,11.0,61,0.00,,,0.00,meteohub,2013-11-25 11:57:00,
2013-11-25 06:02:00,44.1,31.5,30.20,ENE,66,2.0,13.0,61,0.00,,,0.00,meteohub,2013-11-25 12:02:00,
2013-11-25 06:07:00,44.1,31.5,30.20,NNE,32,6.0,13.0,61,0.00,,,0.00,meteohub,2013-11-25 12:07:00,
2013-11-25 06:12:00,44.2,31.6,30.19,NNE,32,2.0,13.0,61,0.00,,,0.00,meteohub,2013-11-25 12:12:00,
2013-11-25 06:17:00,44.2,32.0,30.19,ENE,58,12.0,12.0,62,0.00,,,0.00,meteohub,2013-11-25 12:17:00,
2013-11-25 06:22:00,44.2,32.0,30.19,ENE,58,7.0,12.0,62,0.00,,,0.00,meteohub,2013-11-25 12:22:00,
2013-11-25 06:27:00,44.2,32.0,30.19,NE,51,0.0,12.0,62,0.00,,,0.00,meteohub,2013-11-25 12:27:00,
2013-11-25 06:32:00,44.2,31.6,30.19,ENE,69,3.0,12.0,61,0.00,,,0.00,meteohub,2013-11-25 12:32:00,
2013-11-25 06:37:00,44.4,32.2,30.19,ENE,66,1.0,9.0,62,0.00,,,0.00,meteohub,2013-11-25 12:37:00,
2013-11-25 06:42:00,44.4,32.2,30.19,NE,55,2.0,9.0,62,0.00,,,0.00,meteohub,2013-11-25 12:42:00,
2013-11-25 06:47:00,44.4,32.5,30.19,ENE,67,0.0,9.0,63,0.00,,,0.00,meteohub,2013-11-25 12:47:00,
2013-11-25 06:52:00,44.6,32.7,30.19,ENE,76,4.0,9.0,63,0.00,,,0.00,meteohub,2013-11-25 12:52:00,
2013-11-25 06:57:00,44.4,32.5,30.19,ENE,78,4.0,10.0,63,0.00,,,0.00,meteohub,2013-11-25 12:57:00,
2013-11-25 07:02:00,44.4,33.1,30.19,ENE,61,1.0,11.0,64,0.00,,,0.00,meteohub,2013-11-25 13:02:00,
2013-11-25 07:07:00,44.4,33.1,30.19,ENE,60,3.0,11.0,64,0.00,,,0.00,meteohub,2013-11-25 13:07:00,
2013-11-25 07:12:00,44.4,33.4,30.19,ENE,63,4.0,11.0,65,0.00,,,0.00,meteohub,2013-11-25 13:12:00,
2013-11-25 07:17:00,44.4,33.4,30.19,ENE,67,0.0,8.0,65,0.00,,,0.00,meteohub,2013-11-25 13:17:00,
2013-11-25 07:22:00,44.6,33.6,30.19,ENE,57,4.0,8.0,65,0.00,,,0.00,meteohub,2013-11-25 13:22:00,
2013-11-25 07:27:00,44.6,33.6,30.18,NE,52,3.0,9.0,65,0.00,,,0.00,meteohub,2013-11-25 13:27:00,
2013-11-25 07:32:00,44.8,34.2,30.19,ENE,61,1.0,9.0,66,0.00,,,0.00,meteohub,2013-11-25 13:32:00,
2013-11-25 07:37:00,44.8,33.8,30.19,NE,56,4.0,9.0,65,0.00,,,0.00,meteohub,2013-11-25 13:37:00,
2013-11-25 07:42:00,44.8,34.2,30.19,NE,55,3.0,9.0,66,0.00,,,0.00,meteohub,2013-11-25 13:42:00,
2013-11-25 07:47:00,45.0,34.3,30.19,NE,39,0.0,10.0,66,0.00,,,0.00,meteohub,2013-11-25 13:47:00,
2013-11-25 07:52:00,45.0,34.3,30.19,NNE,28,0.0,10.0,66,0.00,,,0.00,meteohub,2013-11-25 13:52:00,
2013-11-25 07:57:00,45.1,34.5,30.19,NE,36,1.0,10.0,66,0.00,,,0.00,meteohub,2013-11-25 13:57:00,
2013-11-25 08:02:00,45.1,34.5,30.19,NE,39,0.0,7.0,66,0.00,,,0.00,meteohub,2013-11-25 14:02:00,
2013-11-25 08:07:00,45.1,34.5,30.19,NE,39,2.0,6.0,66,0.00,,,0.00,meteohub,2013-11-25 14:07:00,
2013-11-25 08:12:00,45.1,34.9,30.19,NE,40,0.0,6.0,67,0.00,,,0.00,meteohub,2013-11-25 14:12:00,
2013-11-25 08:17:00,45.1,34.9,30.19,NE,44,0.0,6.0,67,0.00,,,0.00,meteohub,2013-11-25 14:17:00,
2013-11-25 08:22:00,45.1,34.9,30.18,NE,36,2.0,6.0,67,0.00,,,0.00,meteohub,2013-11-25 14:22:00,
2013-11-25 08:27:00,45.1,34.9,30.17,NE,38,5.0,8.0,67,0.00,,,0.00,meteohub,2013-11-25 14:27:00,
2013-11-25 08:32:00,45.3,35.4,30.17,NNE,23,0.0,8.0,68,0.00,,,0.00,meteohub,2013-11-25 14:32:00,
2013-11-25 08:37:00,45.5,35.6,30.17,NNE,14,8.0,8.0,68,0.00,,,0.00,meteohub,2013-11-25 14:37:00,
2013-11-25 08:42:00,45.5,35.2,30.17,ENE,57,5.0,9.0,67,0.00,,,0.00,meteohub,2013-11-25 14:42:00,
2013-11-25 08:47:00,45.7,35.8,30.17,ENE,62,2.0,10.0,68,0.00,,,0.00,meteohub,2013-11-25 14:47:00,
2013-11-25 08:52:00,45.9,36.0,30.17,NE,46,6.0,11.0,68,0.00,,,0.00,meteohub,2013-11-25 14:52:00,
2013-11-25 08:57:00,45.9,36.0,30.17,NE,46,2.0,11.0,68,0.00,,,0.00,meteohub,2013-11-25 14:57:00,
2013-11-25 09:02:00,45.9,36.3,30.17,NNE,25,8.0,11.0,69,0.00,,,0.00,meteohub,2013-11-25 15:02:00,
2013-11-25 09:07:00,46.0,36.5,30.17,North,5,5.0,9.0,69,0.00,,,0.00,meteohub,2013-11-25 15:07:00,
2013-11-25 09:12:00,46.0,36.5,30.17,North,355,4.0,9.0,69,0.00,,,0.00,meteohub,2013-11-25 15:12:00,
2013-11-25 09:17:00,46.2,36.7,30.17,NNE,26,3.0,8.0,69,0.00,,,0.00,meteohub,2013-11-25 15:17:00,
2013-11-25 09:22:00,46.2,36.7,30.17,NNE,26,2.0,8.0,69,0.00,,,0.00,meteohub,2013-11-25 15:22:00,
2013-11-25 09:27:00,46.6,37.0,30.17,NNE,19,2.0,8.0,69,0.00,,,0.00,meteohub,2013-11-25 15:27:00,
2013-11-25 09:32:00,46.6,37.4,30.17,NE,40,4.0,6.0,70,0.00,,,0.00,meteohub,2013-11-25 15:32:00,
2013-11-25 09:37:00,46.6,37.4,30.17,NE,40,3.0,6.0,70,0.00,,,0.00,meteohub,2013-11-25 15:37:00,
2013-11-25 09:42:00,46.9,37.6,30.17,NE,40,0.0,6.0,70,0.00,,,0.00,meteohub,2013-11-25 15:42:00,
2013-11-25 09:47:00,46.9,37.6,30.17,NE,35,2.0,6.0,70,0.00,,,0.00,meteohub,2013-11-25 15:47:00,
2013-11-25 09:52:00,47.1,37.8,30.17,NNE,28,2.0,5.0,70,0.00,,,0.00,meteohub,2013-11-25 15:52:00,
2013-11-25 09:57:00,47.1,38.1,30.17,NNE,28,0.0,5.0,71,0.00,,,0.00,meteohub,2013-11-25 15:57:00,
2013-11-25 10:02:00,47.3,37.9,30.17,NNE,28,2.0,5.0,70,0.00,,,0.00,meteohub,2013-11-25 16:02:00,
2013-11-25 10:07:00,47.3,37.9,30.17,NNE,28,0.0,4.0,70,0.00,,,0.00,meteohub,2013-11-25 16:07:00,
2013-11-25 10:12:00,47.5,38.1,30.17,NNE,28,0.0,4.0,70,0.00,,,0.00,meteohub,2013-11-25 16:12:00,
2013-11-25 10:17:00,47.7,38.7,30.17,NNE,28,0.0,4.0,71,0.00,,,0.00,meteohub,2013-11-25 16:17:00,
2013-11-25 10:22:00,47.7,38.7,30.16,NNE,28,2.0,5.0,71,0.00,,,0.00,meteohub,2013-11-25 16:22:00,
2013-11-25 10:27:00,47.8,38.8,30.15,NE,51,0.0,5.0,71,0.00,,,0.00,meteohub,2013-11-25 16:27:00,
2013-11-25 10:32:00,47.7,38.7,30.15,NNE,32,5.0,5.0,71,0.00,,,0.00,meteohub,2013-11-25 16:32:00,
2013-11-25 10:37:00,47.7,39.0,30.15,North,5,3.0,8.0,72,0.00,,,0.00,meteohub,2013-11-25 16:37:00,
2013-11-25 10:42:00,47.7,39.0,30.15,North,5,4.0,8.0,72,0.00,,,0.00,meteohub,2013-11-25 16:42:00,
2013-11-25 10:47:00,47.7,39.4,30.15,NNE,22,1.0,7.0,73,0.00,,,0.00,meteohub,2013-11-25 16:47:00,
2013-11-25 10:52:00,47.8,39.6,30.15,NNE,22,3.0,7.0,73,0.00,,,0.00,meteohub,2013-11-25 16:52:00,
2013-11-25 10:57:00,47.8,39.6,30.14,NNE,29,1.0,7.0,73,0.00,,,0.00,meteohub,2013-11-25 16:57:00,
2013-11-25 11:02:00,47.8,39.9,30.14,North,355,2.0,6.0,74,0.00,,,0.00,meteohub,2013-11-25 17:02:00,
2013-11-25 11:07:00,47.8,39.9,30.14,North,5,3.0,7.0,74,0.00,,,0.00,meteohub,2013-11-25 17:07:00,
2013-11-25 11:12:00,47.8,39.9,30.14,North,5,2.0,7.0,74,0.00,,,0.00,meteohub,2013-11-25 17:12:00,
2013-11-25 11:17:00,47.8,40.3,30.13,NNW,348,3.0,6.0,75,0.00,,,0.00,meteohub,2013-11-25 17:17:00,
2013-11-25 11:22:00,47.8,40.6,30.13,NE,45,1.0,9.0,76,0.00,,,0.00,meteohub,2013-11-25 17:22:00,
2013-11-25 11:27:00,48.0,40.8,30.12,NE,45,0.0,9.0,76,0.00,,,0.00,meteohub,2013-11-25 17:27:00,
2013-11-25 11:32:00,48.0,40.5,30.12,NNW,328,6.0,7.0,75,0.00,,,0.00,meteohub,2013-11-25 17:32:00,
2013-11-25 11:37:00,48.0,40.8,30.12,NNW,327,0.0,8.0,76,0.00,,,0.00,meteohub,2013-11-25 17:37:00,
2013-11-25 11:42:00,48.0,41.2,30.12,NW,321,6.0,8.0,77,0.00,,,0.00,meteohub,2013-11-25 17:42:00,
2013-11-25 11:47:00,47.8,41.0,30.12,NNW,331,4.0,8.0,77,0.00,,,0.00,meteohub,2013-11-25 17:47:00,
2013-11-25 11:52:00,47.8,41.4,30.11,NNW,336,2.0,8.0,78,0.00,,,0.00,meteohub,2013-11-25 17:52:00,
2013-11-25 11:57:00,47.8,41.4,30.11,NNW,339,0.0,8.0,78,0.00,,,0.00,meteohub,2013-11-25 17:57:00,
2013-11-25 12:02:00,47.8,41.7,30.10,North,355,1.0,7.0,79,0.00,,,0.00,meteohub,2013-11-25 18:02:00,
2013-11-25 12:07:00,47.7,41.5,30.10,North,350,6.0,7.0,79,0.00,,,0.00,meteohub,2013-11-25 18:07:00,
2013-11-25 12:12:00,47.5,41.5,30.09,North,355,2.0,7.0,80,0.00,,,0.00,meteohub,2013-11-25 18:12:00,
2013-11-25 12:17:00,47.5,41.9,30.09,North,5,1.0,8.0,81,0.00,,,0.00,meteohub,2013-11-25 18:17:00,
2013-11-25 12:22:00,47.5,41.9,30.09,NNE,32,1.0,8.0,81,0.00,,,0.00,meteohub,2013-11-25 18:22:00,
2013-11-25 12:27:00,47.5,42.3,30.08,NNE,22,2.0,8.0,82,0.00,,,0.00,meteohub,2013-11-25 18:27:00,
2013-11-25 12:31:00,47.1,42.3,30.08,NNE,26,2.0,6.0,83,0.00,,,0.00,meteohub,2013-11-25 18:31:00,
2013-11-25 12:37:00,47.1,42.6,30.07,NE,46,6.0,9.0,84,0.00,,,0.00,meteohub,2013-11-25 18:37:00,
2013-11-25 12:42:00,47.1,42.6,30.06,ENE,59,2.0,9.0,84,0.00,,,0.00,meteohub,2013-11-25 18:42:00,
2013-11-25 12:47:00,47.1,42.8,30.06,North,0,5.0,8.0,85,0.00,,,0.00,meteohub,2013-11-25 18:47:00,
2013-11-25 12:52:00,46.9,42.6,30.05,NNE,23,6.0,8.0,85,0.00,,,0.00,meteohub,2013-11-25 18:52:00,
2013-11-25 12:57:00,46.9,43.0,30.06,NE,50,4.0,8.0,86,0.00,,,0.00,meteohub,2013-11-25 18:57:00,
2013-11-25 13:02:00,46.9,43.0,30.05,North,5,3.0,8.0,86,0.00,,,0.00,meteohub,2013-11-25 19:02:00,
2013-11-25 13:07:00,46.8,43.2,30.05,NE,38,5.0,8.0,87,0.00,,,0.00,meteohub,2013-11-25 19:07:00,
2013-11-25 13:12:00,46.6,43.2,30.05,NNE,24,0.0,7.0,88,0.00,,,0.00,meteohub,2013-11-25 19:12:00,
2013-11-25 13:17:00,46.6,43.5,30.05,North,0,1.0,7.0,89,0.00,,,0.00,meteohub,2013-11-25 19:17:00,
2013-11-25 13:22:00,46.6,43.5,30.05,North,355,3.0,7.0,89,0.00,,,0.00,meteohub,2013-11-25 19:22:00,
2013-11-25 13:27:00,46.4,43.7,30.05,NE,34,3.0,6.0,90,0.00,,,0.00,meteohub,2013-11-25 19:27:00,
2013-11-25 13:31:00,46.2,43.5,30.04,NNE,33,1.0,6.0,90,0.00,,,0.00,meteohub,2013-11-25 19:31:00,
2013-11-25 13:36:00,46.4,43.9,30.04,NNE,33,2.0,6.0,91,0.00,,,0.00,meteohub,2013-11-25 19:36:00,
2013-11-25 13:42:00,46.4,43.9,30.04,NNE,32,3.0,5.0,91,0.00,,,0.00,meteohub,2013-11-25 19:42:00,
2013-11-25 13:47:00,46.2,44.1,30.04,NNE,32,1.0,5.0,92,0.00,,,0.00,meteohub,2013-11-25 19:47:00,
2013-11-25 13:52:00,46.2,44.1,30.04,NNE,32,4.0,5.0,92,0.00,,,0.00,meteohub,2013-11-25 19:52:00,
2013-11-25 13:57:00,46.2,44.1,30.04,NNE,32,2.0,5.0,92,0.00,,,0.00,meteohub,2013-11-25 19:57:00,
2013-11-25 14:02:00,46.0,44.1,30.04,NNE,30,3.0,5.0,93,0.00,,,0.00,meteohub,2013-11-25 20:02:00,
2013-11-25 14:07:00,46.0,44.1,30.04,North,0,3.0,5.0,93,0.00,,,0.00,meteohub,2013-11-25 20:07:00,
2013-11-25 14:12:00,46.2,44.2,30.04,NNE,19,0.0,5.0,93,0.00,,,0.00,meteohub,2013-11-25 20:12:00,
2013-11-25 14:17:00,46.2,44.2,30.03,NNE,22,0.0,6.0,93,0.00,,,0.00,meteohub,2013-11-25 20:17:00,
2013-11-25 14:22:00,46.2,44.6,30.03,NNE,22,3.0,6.0,94,0.00,,,0.00,meteohub,2013-11-25 20:22:00,
2013-11-25 14:27:00,46.2,44.6,30.02,NNE,19,0.0,7.0,94,0.00,,,0.00,meteohub,2013-11-25 20:27:00,
2013-11-25 14:32:00,46.2,44.6,30.01,NE,55,3.0,7.0,94,0.00,,,0.00,meteohub,2013-11-25 20:32:00,
2013-11-25 14:37:00,46.2,44.6,30.02,NE,55,1.0,7.0,94,0.00,,,0.00,meteohub,2013-11-25 20:37:00,
2013-11-25 14:42:00,46.2,44.6,30.01,NNE,20,0.0,6.0,94,0.00,,,0.00,meteohub,2013-11-25 20:42:00,
2013-11-25 14:47:00,46.2,44.8,30.01,NNE,17,4.0,6.0,95,0.00,,,0.00,meteohub,2013-11-25 20:47:00,
2013-11-25 14:52:00,46.0,44.6,30.00,NW,325,2.0,6.0,95,0.00,,,0.00,meteohub,2013-11-25 20:52:00,
2013-11-25 14:57:00,46.0,44.6,30.01,NW,325,1.0,6.0,95,0.00,,,0.00,meteohub,2013-11-25 20:57:00,
2013-11-25 15:02:00,46.0,44.6,30.00,NNW,331,2.0,6.0,95,0.00,,,0.00,meteohub,2013-11-25 21:02:00,
2013-11-25 15:07:00,46.0,44.6,30.00,NNW,338,1.0,6.0,95,0.00,,,0.00,meteohub,2013-11-25 21:07:00,
2013-11-25 15:11:00,46.2,44.8,30.00,NW,323,5.0,6.0,95,0.00,,,0.00,meteohub,2013-11-25 21:11:00,
2013-11-25 15:17:00,46.0,44.6,29.99,NNE,19,4.0,6.0,95,0.00,,,0.00,meteohub,2013-11-25 21:17:00,
2013-11-25 15:22:00,46.0,44.6,30.00,North,355,1.0,8.0,95,0.00,,,0.00,meteohub,2013-11-25 21:22:00,
2013-11-25 15:27:00,46.2,44.8,30.00,NNW,340,2.0,8.0,95,0.00,,,0.00,meteohub,2013-11-25 21:27:00,
2013-11-25 15:32:00,46.2,44.8,30.00,NW,326,9.0,9.0,95,0.00,,,0.00,meteohub,2013-11-25 21:32:00,
2013-11-25 15:37:00,46.2,44.8,30.00,NW,325,5.0,9.0,95,0.00,,,0.00,meteohub,2013-11-25 21:37:00,
2013-11-25 15:42:00,45.9,44.4,30.00,NNW,338,7.0,9.0,95,0.00,,,0.00,meteohub,2013-11-25 21:42:00,
2013-11-25 15:47:00,45.9,44.4,30.00,NNW,334,3.0,9.0,95,0.00,,,0.00,meteohub,2013-11-25 21:47:00,
2013-11-25 15:52:00,45.7,44.4,29.99,NNE,13,4.0,8.0,95,0.00,,,0.00,meteohub,2013-11-25 21:52:00,
2013-11-25 15:57:00,45.7,44.4,29.99,North,5,1.0,8.0,95,0.00,,,0.00,meteohub,2013-11-25 21:57:00,
2013-11-25 16:02:00,45.9,44.8,29.98,North,5,7.0,7.0,96,0.00,,,0.00,meteohub,2013-11-25 22:02:00,
2013-11-25 16:06:00,45.9,44.8,29.99,North,355,1.0,7.0,96,0.00,,,0.00,meteohub,2013-11-25 22:06:00,
2013-11-25 16:12:00,46.0,45.0,29.99,NW,318,6.0,7.0,96,0.00,,,0.00,meteohub,2013-11-25 22:12:00,
2013-11-25 16:17:00,45.9,44.8,29.99,NW,324,6.0,10.0,96,0.00,,,0.00,meteohub,2013-11-25 22:17:00,
2013-11-25 16:22:00,45.9,44.8,29.99,NNW,330,5.0,10.0,96,0.00,,,0.00,meteohub,2013-11-25 22:22:00,
2013-11-25 16:27:00,45.9,44.8,29.99,NNW,339,1.0,9.0,96,0.00,,,0.00,meteohub,2013-11-25 22:27:00,
2013-11-25 16:32:00,45.9,44.8,29.98,NNW,347,1.0,8.0,96,0.00,,,0.00,meteohub,2013-11-25 22:32:00,
2013-11-25 16:37:00,45.9,44.8,29.98,NNW,348,1.0,6.0,96,0.00,,,0.00,meteohub,2013-11-25 22:37:00,
2013-11-25 16:42:00,46.0,45.0,29.98,NW,323,0.0,6.0,96,0.00,,,0.00,meteohub,2013-11-25 22:42:00,
2013-11-25 16:47:00,46.0,45.0,29.98,NW,326,4.0,7.0,96,0.00,,,0.00,meteohub,2013-11-25 22:47:00,
2013-11-25 16:52:00,46.0,45.0,29.98,NNW,342,2.0,8.0,96,0.00,,,0.00,meteohub,2013-11-25 22:52:00,
2013-11-25 16:57:00,46.2,45.1,29.97,NNW,340,7.0,8.0,96,0.00,,,0.00,meteohub,2013-11-25 22:57:00,
2013-11-25 17:02:00,46.2,45.1,29.98,NNW,329,7.0,8.0,96,0.00,,,0.00,meteohub,2013-11-25 23:02:00,
2013-11-25 17:07:00,46.2,45.1,29.97,NNW,347,4.0,9.0,96,0.00,,,0.00,meteohub,2013-11-25 23:07:00,
2013-11-25 17:12:00,46.2,45.1,29.98,NW,321,4.0,9.0,96,0.00,,,0.00,meteohub,2013-11-25 23:12:00,
2013-11-25 17:17:00,46.2,45.1,29.97,NNW,346,3.0,9.0,96,0.00,,,0.00,meteohub,2013-11-25 23:17:00,
2013-11-25 17:22:00,46.4,45.3,29.97,NNW,338,8.0,9.0,96,0.00,,,0.00,meteohub,2013-11-25 23:22:00,
2013-11-25 17:27:00,46.4,45.3,29.98,NW,306,4.0,9.0,96,0.00,,,0.00,meteohub,2013-11-25 23:27:00,
2013-11-25 17:32:00,46.6,45.5,29.98,West,277,6.0,10.0,96,0.00,,,0.00,meteohub,2013-11-25 23:32:00,
2013-11-25 17:37:00,46.6,45.5,29.98,NNW,336,4.0,10.0,96,0.00,,,0.00,meteohub,2013-11-25 23:37:00,
2013-11-25 17:42:00,46.6,45.5,29.98,NNW,331,4.0,10.0,96,0.00,,,0.00,meteohub,2013-11-25 23:42:00,
2013-11-25 17:47:00,46.6,45.5,29.98,NNW,327,1.0,9.0,96,0.00,,,0.00,meteohub,2013-11-25 23:47:00,
2013-11-25 17:52:00,46.6,45.5,29.97,NW,323,5.0,9.0,96,0.00,,,0.00,meteohub,2013-11-25 23:52:00,
2013-11-25 17:57:00,46.6,45.5,29.97,NNW,337,3.0,8.0,96,0.00,,,0.00,meteohub,2013-11-25 23:57:00,
2013-11-25 18:02:00,46.6,45.5,29.97,NW,319,6.0,7.0,96,0.00,,,0.00,meteohub,2013-11-26 00:02:00,
2013-11-25 18:07:00,46.6,45.5,29.97,NNW,327,6.0,8.0,96,0.00,,,0.00,meteohub,2013-11-26 00:07:00,
2013-11-25 18:12:00,46.6,45.5,29.97,NNW,337,3.0,9.0,96,0.00,,,0.00,meteohub,2013-11-26 00:12:00,
2013-11-25 18:17:00,46.6,45.5,29.97,NNW,327,7.0,10.0,96,0.00,,,0.00,meteohub,2013-11-26 00:17:00,
2013-11-25 18:22:00,46.4,45.3,29.97,NNW,340,4.0,10.0,96,0.00,,,0.00,meteohub,2013-11-26 00:22:00,
2013-11-25 18:27:00,46.6,45.9,29.97,NW,321,6.0,10.0,97,0.00,,,0.00,meteohub,2013-11-26 00:27:00,
2013-11-25 18:32:00,46.4,45.7,29.97,NNW,338,6.0,10.0,97,0.00,,,0.00,meteohub,2013-11-26 00:32:00,
2013-11-25 18:37:00,46.4,45.7,29.97,NNW,327,6.0,10.0,97,0.00,,,0.00,meteohub,2013-11-26 00:37:00,
2013-11-25 18:42:00,46.2,45.1,29.97,NW,322,6.0,11.0,96,0.00,,,0.00,meteohub,2013-11-26 00:42:00,
2013-11-25 18:47:00,46.2,45.1,29.96,NW,323,5.0,11.0,96,0.00,,,0.00,meteohub,2013-11-26 00:47:00,
2013-11-25 18:52:00,46.2,45.5,29.96,NNW,333,7.0,11.0,97,0.00,,,0.00,meteohub,2013-11-26 00:52:00,
2013-11-25 18:57:00,46.2,45.5,29.96,NW,323,10.0,12.0,97,0.00,,,0.00,meteohub,2013-11-26 00:57:00,
2013-11-25 19:02:00,46.2,45.1,29.96,NW,323,5.0,12.0,96,0.00,,,0.00,meteohub,2013-11-26 01:02:00,
2013-11-25 19:07:00,46.2,45.1,29.96,NW,309,8.0,12.0,96,0.00,,,0.00,meteohub,2013-11-26 01:07:00,
2013-11-25 19:12:00,46.2,45.5,29.96,NW,321,3.0,12.0,97,0.00,,,0.00,meteohub,2013-11-26 01:12:00,
2013-11-25 19:17:00,46.4,45.7,29.95,NW,325,7.0,10.0,97,0.00,,,0.00,meteohub,2013-11-26 01:17:00,
2013-11-25 19:22:00,46.2,45.1,29.95,NW,322,7.0,10.0,96,0.00,,,0.00,meteohub,2013-11-26 01:22:00,
2013-11-25 19:27:00,46.2,45.5,29.95,NNW,336,5.0,11.0,97,0.00,,,0.00,meteohub,2013-11-26 01:27:00,
2013-11-25 19:32:00,46.2,45.5,29.95,NW,323,5.0,11.0,97,0.00,,,0.00,meteohub,2013-11-26 01:32:00,
2013-11-25 19:37:00,46.2,45.5,29.94,NNW,340,4.0,11.0,97,0.00,,,0.00,meteohub,2013-11-26 01:37:00,
2013-11-25 19:42:00,46.2,45.5,29.94,NW,317,7.0,11.0,97,0.00,,,0.00,meteohub,2013-11-26 01:42:00,
2013-11-25 19:47:00,46.2,45.1,29.94,NW,325,2.0,11.0,96,0.00,,,0.00,meteohub,2013-11-26 01:47:00,
2013-11-25 19:52:00,46.2,45.1,29.93,NW,321,10.0,11.0,96,0.00,,,0.00,meteohub,2013-11-26 01:52:00,
2013-11-25 19:57:00,46.0,45.0,29.94,NW,326,3.0,10.0,96,0.00,,,0.00,meteohub,2013-11-26 01:57:00,
2013-11-25 20:02:00,46.0,45.0,29.94,NNW,333,2.0,10.0,96,0.00,,,0.00,meteohub,2013-11-26 02:02:00,
2013-11-25 20:07:00,46.0,45.0,29.93,NW,325,6.0,10.0,96,0.00,,,0.00,meteohub,2013-11-26 02:07:00,
2013-11-25 20:12:00,46.0,45.0,29.93,NW,324,5.0,9.0,96,0.00,,,0.00,meteohub,2013-11-26 02:12:00,
2013-11-25 20:17:00,46.0,45.3,29.93,NW,320,7.0,10.0,97,0.00,,,0.00,meteohub,2013-11-26 02:17:00,
2013-11-25 20:22:00,46.0,45.3,29.93,NW,324,5.0,10.0,97,0.00,,,0.00,meteohub,2013-11-26 02:22:00,
2013-11-25 20:27:00,46.0,45.3,29.93,NW,325,7.0,10.0,97,0.00,,,0.00,meteohub,2013-11-26 02:27:00,
2013-11-25 20:32:00,46.0,45.3,29.93,NNW,342,7.0,11.0,97,0.00,,,0.00,meteohub,2013-11-26 02:32:00,
2013-11-25 20:37:00,46.0,45.3,29.93,NNW,340,8.0,11.0,97,0.00,,,0.00,meteohub,2013-11-26 02:37:00,
2013-11-25 20:42:00,45.9,45.1,29.93,NW,325,9.0,11.0,97,0.00,,,0.00,meteohub,2013-11-26 02:42:00,
2013-11-25 20:47:00,45.9,45.1,29.93,NNW,327,4.0,11.0,97,0.00,,,0.00,meteohub,2013-11-26 02:47:00,
2013-11-25 20:52:00,46.0,45.3,29.93,NNW,328,5.0,11.0,97,0.00,,,0.00,meteohub,2013-11-26 02:52:00,
2013-11-25 20:57:00,46.0,45.3,29.93,NW,312,9.0,10.0,97,0.00,,,0.00,meteohub,2013-11-26 02:57:00,
2013-11-25 21:02:00,46.0,45.3,29.94,NNW,327,7.0,10.0,97,0.00,,,0.00,meteohub,2013-11-26 03:02:00,
2013-11-25 21:07:00,46.0,45.3,29.94,NW,315,7.0,12.0,97,0.00,,,0.00,meteohub,2013-11-26 03:07:00,
2013-11-25 21:12:00,46.0,45.3,29.94,NW,311,7.0,12.0,97,0.00,,,0.00,meteohub,2013-11-26 03:12:00,
2013-11-25 21:17:00,46.0,45.3,29.94,NW,316,7.0,12.0,97,0.00,,,0.00,meteohub,2013-11-26 03:17:00,
2013-11-25 21:22:00,46.0,45.3,29.94,NNW,327,6.0,12.0,97,0.00,,,0.00,meteohub,2013-11-26 03:22:00,
2013-11-25 21:27:00,46.0,45.3,29.94,NW,309,12.0,12.0,97,0.00,,,0.00,meteohub,2013-11-26 03:27:00,
2013-11-25 21:32:00,45.9,45.1,29.95,NW,314,11.0,13.0,97,0.00,,,0.00,meteohub,2013-11-26 03:32:00,
2013-11-25 21:37:00,45.9,45.1,29.94,NW,319,11.0,17.0,97,0.00,,,0.00,meteohub,2013-11-26 03:37:00,
2013-11-25 21:42:00,45.7,44.6,29.95,NNW,331,12.0,17.0,96,0.00,,,0.00,meteohub,2013-11-26 03:42:00,
2013-11-25 21:47:00,45.7,45.0,29.95,NNW,336,10.0,14.0,97,0.00,,,0.00,meteohub,2013-11-26 03:47:00,
2013-11-25 21:52:00,45.3,44.6,29.94,NW,324,8.0,14.0,97,0.00,,,0.00,meteohub,2013-11-26 03:52:00,
2013-11-25 21:56:00,45.1,44.4,29.94,NNW,335,12.0,14.0,97,0.00,,,0.00,meteohub,2013-11-26 03:56:00,
2013-11-25 22:02:00,45.1,44.4,29.94,NW,317,5.0,14.0,97,0.00,,,0.00,meteohub,2013-11-26 04:02:00,
2013-11-25 22:07:00,45.0,44.2,29.94,NW,308,12.0,14.0,97,0.00,,,0.00,meteohub,2013-11-26 04:07:00,
2013-11-25 22:11:00,45.0,44.2,29.94,NNW,334,4.0,15.0,97,0.00,,,0.00,meteohub,2013-11-26 04:11:00,
2013-11-25 22:17:00,45.0,44.2,29.94,NNW,331,6.0,15.0,97,0.00,,,0.00,meteohub,2013-11-26 04:17:00,
2013-11-25 22:22:00,45.0,44.2,29.93,NW,315,7.0,15.0,97,0.00,,,0.00,meteohub,2013-11-26 04:22:00,
2013-11-25 22:26:00,45.0,44.2,29.93,NW,320,7.0,14.0,97,0.00,,,0.00,meteohub,2013-11-26 04:26:00,
2013-11-25 22:31:00,45.0,44.2,29.92,NW,319,6.0,14.0,97,0.00,,,0.00,meteohub,2013-11-26 04:31:00,
2013-11-25 22:36:00,45.0,44.2,29.91,NNW,329,6.0,14.0,97,0.00,,,0.00,meteohub,2013-11-26 04:36:00,
2013-11-25 22:42:00,44.8,44.1,29.90,North,0,9.0,14.0,97,0.00,,,0.00,meteohub,2013-11-26 04:42:00,
2013-11-25 22:47:00,44.8,44.1,29.90,NW,319,3.0,13.0,97,0.00,,,0.00,meteohub,2013-11-26 04:47:00,
2013-11-25 22:52:00,44.6,43.5,29.91,NW,326,8.0,13.0,96,0.00,,,0.00,meteohub,2013-11-26 04:52:00,
2013-11-25 22:57:00,44.8,43.7,29.91,North,9,13.0,13.0,96,0.00,,,0.00,meteohub,2013-11-26 04:57:00,
2013-11-25 23:01:00,44.6,43.9,29.91,NW,319,9.0,14.0,97,0.00,,,0.00,meteohub,2013-11-26 05:01:00,
2013-11-25 23:02:00,44.6,43.9,29.91,NNW,339,2.0,14.0,97,0.00,,,0.00,meteohub,2013-11-26 05:02:00,
2013-11-25 23:03:00,44.6,43.9,29.91,NNW,333,4.0,14.0,97,0.00,,,0.00,meteohub,2013-11-26 05:03:00,
2013-11-25 23:07:00,44.6,43.5,29.91,NNW,335,9.0,14.0,96,0.00,,,0.00,meteohub,2013-11-26 05:07:00,
2013-11-25 23:13:00,44.4,43.3,29.91,North,355,6.0,14.0,96,0.00,,,0.00,meteohub,2013-11-26 05:13:00,
2013-11-25 23:18:00,44.6,43.5,29.92,NW,311,13.0,13.0,96,0.00,,,0.00,meteohub,2013-11-26 05:18:00,
2013-11-25 23:23:00,44.6,43.9,29.94,NW,311,7.0,12.0,97,0.00,,,0.00,meteohub,2013-11-26 05:23:00,
2013-11-25 23:28:00,44.8,44.1,29.95,NW,313,8.0,14.0,97,0.00,,,0.00,meteohub,2013-11-26 05:28:00,
2013-11-25 23:33:00,44.4,43.7,29.96,NW,317,9.0,17.0,97,0.00,,,0.00,meteohub,2013-11-26 05:33:00,
2013-11-25 23:38:00,44.2,43.2,29.94,NW,310,10.0,22.0,96,0.00,,,0.00,meteohub,2013-11-26 05:38:00,
2013-11-25 23:43:00,44.1,43.0,29.95,NW,305,6.0,22.0,96,0.00,,,0.00,meteohub,2013-11-26 05:43:00,
2013-11-25 23:48:00,44.1,43.0,29.95,NNW,333,8.0,23.0,96,0.00,,,0.00,meteohub,2013-11-26 05:48:00,
2013-11-25 23:53:00,44.1,43.0,29.94,NW,321,11.0,23.0,96,0.00,,,0.00,meteohub,2013-11-26 05:53:00,
2013-11-25 23:58:00,44.1,43.0,29.94,NNW,345,8.0,23.0,96,0.00,,,0.00,meteohub,2013-11-26 05:58:00,